RYR2LT ENTO-EPPO

Flight info

Callsign RYR2LT
Flight time 1h 10m
Altitude 35000
Route BOMGU Z132 LATKU L996 KELIN DCT POKEN DCT VAVUN L996 DENKO
Aircraft B738/M-SDE2E3FGHIRWXY/LB1

Departure

Time 2026-05-07 14:50
Airport Sandefjord Airport, Torp (ENTO)

Arrival

Time 2026-05-07 16:01
Airport Poznań-Ławica Airport (EPPO)
Time Latitude Longitude Altitude Speed Heading
2026-05-07 14:31 59.18005 10.25328 277 ft 0 kts 180°
2026-05-07 14:41 59.18006 10.25328 279 ft 2 kts 180°
2026-05-07 14:42 59.18031 10.25326 282 ft 4 kts 181°
2026-05-07 14:42 59.18057 10.25328 284 ft 4 kts 167°
2026-05-07 14:42 59.18065 10.25328 281 ft 1 kts 90°
2026-05-07 14:44 59.18065 10.25359 280 ft 8 kts 90°
2026-05-07 14:45 59.18079 10.25527 280 ft 12 kts 45°
2026-05-07 14:45 59.18148 10.25635 277 ft 14 kts 47°
2026-05-07 14:45 59.18224 10.25798 277 ft 17 kts 47°
2026-05-07 14:45 59.18275 10.26002 277 ft 17 kts 87°
2026-05-07 14:46 59.18290 10.26225 279 ft 17 kts 47°
2026-05-07 14:46 59.18350 10.26246 277 ft 8 kts 359°
2026-05-07 14:46 59.18409 10.26245 277 ft 10 kts 359°
2026-05-07 14:46 59.18520 10.26242 277 ft 27 kts 359°
2026-05-07 14:47 59.18719 10.26237 277 ft 28 kts 359°
2026-05-07 14:47 59.18909 10.26236 277 ft 26 kts 360°
2026-05-07 14:47 59.19087 10.26229 277 ft 25 kts 359°
2026-05-07 14:47 59.19253 10.26224 277 ft 23 kts 359°
2026-05-07 14:48 59.19410 10.26221 277 ft 22 kts 359°
2026-05-07 14:48 59.19564 10.26218 277 ft 22 kts 359°
2026-05-07 14:48 59.19713 10.26212 277 ft 21 kts 353°
2026-05-07 14:48 59.19807 10.26058 277 ft 1 kts 308°
2026-05-07 14:49 59.19815 10.26038 277 ft 10 kts 308°
2026-05-07 14:49 59.19855 10.25872 276 ft 14 kts 247°
2026-05-07 14:49 59.19776 10.25840 277 ft 12 kts 179°
2026-05-07 14:49 59.19437 10.25847 279 ft 91 kts 179°
2026-05-07 14:50 59.18561 10.25863 416 ft 147 kts 178°
2026-05-07 14:50 59.17562 10.25908 1453 ft 142 kts 181°
2026-05-07 14:50 59.16527 10.25957 2254 ft 152 kts 180°
2026-05-07 14:50 59.15378 10.25958 2630 ft 180 kts 180°
2026-05-07 14:51 59.14036 10.25968 2947 ft 207 kts 180°
2026-05-07 14:51 59.12521 10.25999 3198 ft 228 kts 180°
2026-05-07 14:51 59.10918 10.26061 3743 ft 231 kts 179°
2026-05-07 14:51 59.09309 10.26115 4418 ft 234 kts 178°
2026-05-07 14:52 59.07763 10.27094 5072 ft 243 kts 143°
2026-05-07 14:52 59.06586 10.29649 5417 ft 266 kts 126°
2026-05-07 14:52 59.05489 10.32608 6143 ft 272 kts 126°
2026-05-07 14:52 59.04385 10.35624 6951 ft 277 kts 126°
2026-05-07 14:53 59.03254 10.38694 7719 ft 282 kts 126°
2026-05-07 14:53 59.02103 10.41790 8613 ft 284 kts 127°
2026-05-07 14:53 59.00932 10.44914 9471 ft 288 kts 127°
2026-05-07 14:53 58.99738 10.48079 10299 ft 293 kts 128°
2026-05-07 14:54 58.98486 10.51384 10675 ft 316 kts 128°
2026-05-07 14:54 58.97146 10.54911 11168 ft 331 kts 128°
2026-05-07 14:54 58.95793 10.58465 11907 ft 338 kts 128°
2026-05-07 14:54 58.94390 10.62151 12742 ft 343 kts 128°
2026-05-07 14:55 58.92960 10.65894 13584 ft 348 kts 128°
2026-05-07 14:55 58.91503 10.69696 14355 ft 355 kts 128°
2026-05-07 14:55 58.89980 10.73490 15154 ft 359 kts 133°
2026-05-07 14:55 58.88328 10.77065 15951 ft 363 kts 135°
2026-05-07 14:56 58.86578 10.80639 16729 ft 368 kts 136°
2026-05-07 14:56 58.84794 10.84227 17567 ft 372 kts 136°
2026-05-07 14:56 58.82991 10.87857 18365 ft 377 kts 136°
2026-05-07 14:56 58.81165 10.91550 19037 ft 383 kts 136°
2026-05-07 14:57 58.79318 10.95306 19711 ft 388 kts 136°
2026-05-07 14:57 58.77455 10.99108 20411 ft 392 kts 136°
2026-05-07 14:57 58.75569 11.02961 21085 ft 397 kts 136°
2026-05-07 14:57 58.73659 11.06862 21746 ft 402 kts 136°
2026-05-07 14:58 58.71729 11.10803 22402 ft 407 kts 136°
2026-05-07 14:58 58.69776 11.14784 23047 ft 412 kts 136°
2026-05-07 14:58 58.67798 11.18810 23678 ft 416 kts 136°
2026-05-07 14:58 58.65797 11.22876 24207 ft 421 kts 136°
2026-05-07 14:59 58.63777 11.26971 24737 ft 424 kts 136°
2026-05-07 14:59 58.61739 11.31097 25282 ft 428 kts 136°
2026-05-07 14:59 58.59675 11.35269 25793 ft 432 kts 136°
2026-05-07 14:59 58.57595 11.39463 26276 ft 436 kts 136°
2026-05-07 15:00 58.55493 11.43694 26765 ft 440 kts 136°
2026-05-07 15:00 58.53398 11.47905 27250 ft 443 kts 136°
2026-05-07 15:00 58.51262 11.52189 27721 ft 447 kts 136°
2026-05-07 15:00 58.49112 11.56493 28273 ft 448 kts 136°
2026-05-07 15:01 58.46947 11.60821 28773 ft 451 kts 136°
2026-05-07 15:01 58.44769 11.65164 29205 ft 455 kts 136°
2026-05-07 15:01 58.42572 11.69536 29612 ft 459 kts 136°
2026-05-07 15:01 58.40350 11.73950 30045 ft 462 kts 136°
2026-05-07 15:02 58.38117 11.78378 30419 ft 465 kts 136°
2026-05-07 15:02 58.35871 11.82824 30787 ft 467 kts 136°
2026-05-07 15:02 58.33609 11.87294 31155 ft 470 kts 136°
2026-05-07 15:02 58.31334 11.91782 31493 ft 472 kts 136°
2026-05-07 15:03 58.29076 11.96226 31818 ft 475 kts 136°
2026-05-07 15:03 58.26768 12.00729 32145 ft 477 kts 138°
2026-05-07 15:03 58.24224 12.04762 32443 ft 476 kts 148°
2026-05-07 15:03 58.21405 12.08015 32752 ft 474 kts 158°
2026-05-07 15:04 58.18384 12.10515 33085 ft 473 kts 161°
2026-05-07 15:04 58.15347 12.12895 33493 ft 472 kts 161°
2026-05-07 15:04 58.12308 12.15258 33962 ft 471 kts 161°
2026-05-07 15:04 58.09281 12.17621 34370 ft 470 kts 161°
2026-05-07 15:05 58.06265 12.19995 34736 ft 468 kts 161°
2026-05-07 15:05 58.03267 12.22369 35148 ft 466 kts 161°
2026-05-07 15:05 58.00283 12.24740 35556 ft 464 kts 161°
2026-05-07 15:05 57.97312 12.27106 35927 ft 463 kts 161°
2026-05-07 15:06 57.94351 12.29461 36273 ft 462 kts 161°
2026-05-07 15:06 57.91393 12.31811 36631 ft 460 kts 161°
2026-05-07 15:06 57.88445 12.34148 36998 ft 459 kts 161°
2026-05-07 15:06 57.85512 12.36470 37357 ft 457 kts 160°
2026-05-07 15:07 57.82586 12.38782 37757 ft 454 kts 161°
2026-05-07 15:07 57.79709 12.41049 38075 ft 454 kts 161°
2026-05-07 15:07 57.76800 12.43337 38375 ft 453 kts 161°
2026-05-07 15:07 57.73893 12.45620 38708 ft 452 kts 161°
2026-05-07 15:08 57.71003 12.47885 38973 ft 451 kts 161°
2026-05-07 15:08 57.68107 12.50151 39185 ft 451 kts 161°
2026-05-07 15:08 57.65211 12.52413 39377 ft 451 kts 161°
2026-05-07 15:08 57.62310 12.54674 39576 ft 451 kts 161°
2026-05-07 15:09 57.59412 12.56930 39790 ft 451 kts 161°
2026-05-07 15:09 57.56518 12.59179 39982 ft 451 kts 161°
2026-05-07 15:09 57.53623 12.61425 40146 ft 451 kts 161°
2026-05-07 15:09 57.50727 12.63668 40331 ft 451 kts 161°
2026-05-07 15:10 57.47825 12.65912 40530 ft 451 kts 161°
2026-05-07 15:10 57.44928 12.68149 40724 ft 450 kts 161°
2026-05-07 15:10 57.42034 12.70378 40877 ft 451 kts 161°
2026-05-07 15:10 57.39171 12.72580 41039 ft 451 kts 161°
2026-05-07 15:11 57.33339 12.77053 41077 ft 455 kts 161°
2026-05-07 15:11 57.27515 12.81508 41074 ft 450 kts 161°
2026-05-07 15:12 57.21750 12.85904 41083 ft 446 kts 161°
2026-05-07 15:12 57.16030 12.90248 41086 ft 443 kts 161°
2026-05-07 15:13 57.10331 12.94560 41085 ft 441 kts 161°
2026-05-07 15:13 57.04684 12.98819 41092 ft 441 kts 161°
2026-05-07 15:14 56.98997 13.03093 41099 ft 443 kts 161°
2026-05-07 15:14 56.93320 13.07346 41095 ft 444 kts 161°
2026-05-07 15:15 56.87578 13.11635 41114 ft 446 kts 161°
2026-05-07 15:15 56.81880 13.15877 41100 ft 448 kts 161°
2026-05-07 15:16 56.76087 13.20175 41098 ft 450 kts 161°
2026-05-07 15:16 56.71251 13.23752 41094 ft 452 kts 161°
2026-05-07 15:17 56.65418 13.28054 41090 ft 453 kts 161°
2026-05-07 15:17 56.59543 13.32371 41111 ft 458 kts 161°
2026-05-07 15:18 56.53598 13.36724 41098 ft 462 kts 161°
2026-05-07 15:18 56.47614 13.41094 41083 ft 464 kts 161°
2026-05-07 15:19 56.41615 13.45459 41087 ft 465 kts 161°
2026-05-07 15:19 56.35618 13.49809 41073 ft 464 kts 161°
2026-05-07 15:20 56.29669 13.54108 41080 ft 462 kts 161°
2026-05-07 15:20 56.23704 13.58404 41089 ft 461 kts 161°
2026-05-07 15:21 56.17759 13.62672 41089 ft 459 kts 161°
2026-05-07 15:21 56.11821 13.66919 41086 ft 458 kts 161°
2026-05-07 15:22 56.05897 13.71142 41076 ft 457 kts 161°
2026-05-07 15:22 56.00025 13.75315 41070 ft 456 kts 161°
2026-05-07 15:23 55.94130 13.79490 41082 ft 455 kts 161°
2026-05-07 15:23 55.88242 13.83647 41092 ft 455 kts 161°
2026-05-07 15:24 55.82362 13.87785 41091 ft 454 kts 161°
2026-05-07 15:24 55.76481 13.91909 41094 ft 454 kts 161°
2026-05-07 15:25 55.70598 13.96022 41094 ft 454 kts 161°
2026-05-07 15:25 55.64720 14.00118 41094 ft 454 kts 161°
2026-05-07 15:26 55.58839 14.04203 41111 ft 454 kts 161°
2026-05-07 15:26 55.52941 14.08286 41101 ft 454 kts 161°
2026-05-07 15:27 55.47055 14.12348 41102 ft 455 kts 161°
2026-05-07 15:27 55.41160 14.16404 41110 ft 455 kts 161°
2026-05-07 15:28 55.35301 14.20421 41109 ft 455 kts 161°
2026-05-07 15:28 55.29631 14.24297 41109 ft 455 kts 161°
2026-05-07 15:29 55.23723 14.28323 41111 ft 455 kts 161°
2026-05-07 15:29 55.17815 14.32337 41109 ft 455 kts 161°
2026-05-07 15:30 55.11904 14.36339 41108 ft 456 kts 161°
2026-05-07 15:30 55.05985 14.40334 41098 ft 455 kts 161°
2026-05-07 15:31 55.00078 14.44310 41105 ft 455 kts 161°
2026-05-07 15:31 54.94171 14.48272 41107 ft 454 kts 161°
2026-05-07 15:32 54.88266 14.52222 41102 ft 454 kts 161°
2026-05-07 15:32 54.82403 14.56130 41110 ft 454 kts 161°
2026-05-07 15:33 54.76457 14.59820 41112 ft 453 kts 164°
2026-05-07 15:33 54.70479 14.63267 41108 ft 453 kts 164°
2026-05-07 15:34 54.64491 14.66722 41108 ft 453 kts 164°
2026-05-07 15:34 54.58508 14.70206 41103 ft 453 kts 163°
2026-05-07 15:35 54.52540 14.73689 41104 ft 453 kts 163°
2026-05-07 15:35 54.46574 14.77163 41107 ft 452 kts 163°
2026-05-07 15:36 54.40607 14.80626 41106 ft 452 kts 163°
2026-05-07 15:36 54.34635 14.84079 41097 ft 452 kts 163°
2026-05-07 15:37 54.28673 14.87517 41099 ft 452 kts 164°
2026-05-07 15:37 54.22742 14.90925 41099 ft 452 kts 164°
2026-05-07 15:38 54.16733 14.94369 41101 ft 452 kts 164°
2026-05-07 15:38 54.10803 14.97756 41084 ft 452 kts 164°
2026-05-07 15:39 54.04842 15.01152 41091 ft 452 kts 164°
2026-05-07 15:39 53.98859 15.04548 40720 ft 458 kts 164°
2026-05-07 15:40 53.95837 15.06259 40196 ft 457 kts 164°
2026-05-07 15:40 53.92821 15.07966 39594 ft 455 kts 164°
2026-05-07 15:40 53.89820 15.09663 38980 ft 453 kts 164°
2026-05-07 15:40 53.86831 15.11349 38226 ft 453 kts 164°
2026-05-07 15:41 53.83850 15.13027 37524 ft 451 kts 164°
2026-05-07 15:41 53.80912 15.14679 36873 ft 449 kts 164°
2026-05-07 15:41 53.77954 15.16341 36197 ft 447 kts 164°
2026-05-07 15:41 53.74995 15.17999 35496 ft 446 kts 163°
2026-05-07 15:42 53.72055 15.19645 34978 ft 441 kts 163°
2026-05-07 15:42 53.69159 15.21265 34463 ft 437 kts 163°
2026-05-07 15:42 53.66286 15.22869 33929 ft 432 kts 163°
2026-05-07 15:42 53.63479 15.24433 33343 ft 427 kts 163°
2026-05-07 15:43 53.60642 15.26011 32839 ft 435 kts 163°
2026-05-07 15:43 53.57725 15.27630 32293 ft 447 kts 162°
2026-05-07 15:43 53.54754 15.29280 31732 ft 451 kts 162°
2026-05-07 15:43 53.51782 15.30929 31194 ft 448 kts 162°
2026-05-07 15:44 53.48823 15.32567 30667 ft 448 kts 162°
2026-05-07 15:44 53.45900 15.34365 30189 ft 446 kts 156°
2026-05-07 15:44 53.43056 15.36578 29600 ft 456 kts 154°
2026-05-07 15:44 53.40188 15.38906 29011 ft 462 kts 154°
2026-05-07 15:45 53.37281 15.41220 28348 ft 463 kts 155°
2026-05-07 15:45 53.34353 15.43467 27728 ft 462 kts 155°
2026-05-07 15:45 53.31430 15.45682 27162 ft 461 kts 155°
2026-05-07 15:45 53.28510 15.47896 26561 ft 461 kts 155°
2026-05-07 15:46 53.22603 15.52391 25395 ft 465 kts 156°
2026-05-07 15:46 53.19693 15.54606 24814 ft 455 kts 156°
2026-05-07 15:46 53.16830 15.56784 24255 ft 450 kts 156°
2026-05-07 15:47 53.13985 15.58943 23696 ft 448 kts 156°
2026-05-07 15:47 53.11166 15.61079 23059 ft 444 kts 156°
2026-05-07 15:47 53.08355 15.63207 22487 ft 442 kts 156°
2026-05-07 15:47 53.05564 15.65316 21918 ft 438 kts 156°
2026-05-07 15:48 53.02797 15.67403 21358 ft 435 kts 156°
2026-05-07 15:48 53.00051 15.69477 20787 ft 433 kts 156°
2026-05-07 15:48 52.97347 15.71521 20233 ft 431 kts 156°
2026-05-07 15:48 52.94623 15.73579 19674 ft 430 kts 156°
2026-05-07 15:49 52.91910 15.75626 19118 ft 428 kts 157°
2026-05-07 15:49 52.89202 15.77666 18570 ft 426 kts 157°
2026-05-07 15:49 52.86512 15.79689 17978 ft 423 kts 157°
2026-05-07 15:49 52.83894 15.81890 17342 ft 422 kts 148°
2026-05-07 15:50 52.81695 15.85078 16886 ft 420 kts 133°
2026-05-07 15:50 52.80035 15.88995 16545 ft 416 kts 119°
2026-05-07 15:50 52.78833 15.93356 16217 ft 418 kts 115°
2026-05-07 15:50 52.77662 15.97772 15808 ft 420 kts 115°
2026-05-07 15:51 52.76484 16.02186 15297 ft 418 kts 115°
2026-05-07 15:51 52.75309 16.06548 14798 ft 415 kts 116°
2026-05-07 15:51 52.74128 16.10886 14310 ft 413 kts 116°
2026-05-07 15:51 52.72949 16.15187 13831 ft 411 kts 116°
2026-05-07 15:52 52.71768 16.19471 13302 ft 409 kts 116°
2026-05-07 15:52 52.70589 16.23730 12775 ft 406 kts 116°
2026-05-07 15:52 52.69419 16.27950 12243 ft 403 kts 116°
2026-05-07 15:52 52.68271 16.32082 11749 ft 400 kts 116°
2026-05-07 15:53 52.67113 16.36241 11241 ft 398 kts 116°
2026-05-07 15:53 52.65961 16.40372 10750 ft 395 kts 116°
2026-05-07 15:53 52.64824 16.44447 10257 ft 385 kts 115°
2026-05-07 15:53 52.63723 16.48383 9752 ft 369 kts 115°
2026-05-07 15:54 52.62669 16.52148 9220 ft 354 kts 115°
2026-05-07 15:54 52.61656 16.55757 8689 ft 342 kts 115°
2026-05-07 15:54 52.60671 16.59258 8184 ft 332 kts 115°
2026-05-07 15:54 52.59715 16.62655 7662 ft 323 kts 114°
2026-05-07 15:55 52.58782 16.65961 7166 ft 314 kts 114°
2026-05-07 15:55 52.57872 16.69184 6669 ft 307 kts 114°
2026-05-07 15:55 52.56981 16.72340 6177 ft 302 kts 114°
2026-05-07 15:55 52.56103 16.75444 5665 ft 297 kts 114°
2026-05-07 15:56 52.55241 16.78482 5272 ft 289 kts 114°
2026-05-07 15:56 52.54409 16.81412 4896 ft 282 kts 114°
2026-05-07 15:56 52.53587 16.84307 4513 ft 277 kts 113°
2026-05-07 15:56 52.52782 16.87138 4142 ft 271 kts 112°
2026-05-07 15:57 52.51957 16.89843 3922 ft 257 kts 123°
2026-05-07 15:57 52.50608 16.91597 3679 ft 246 kts 159°
2026-05-07 15:57 52.49005 16.92187 3484 ft 232 kts 167°
2026-05-07 15:57 52.47482 16.92663 3239 ft 212 kts 166°
2026-05-07 15:58 52.46088 16.93073 2948 ft 197 kts 167°
2026-05-07 15:58 52.44774 16.93450 2636 ft 185 kts 167°
2026-05-07 15:58 52.43520 16.93808 2218 ft 181 kts 167°
2026-05-07 15:58 52.42309 16.94017 1960 ft 171 kts 183°
2026-05-07 15:59 52.41198 16.93399 1772 ft 172 kts 218°
2026-05-07 15:59 52.40571 16.91783 1670 ft 176 kts 258°
2026-05-07 15:59 52.40666 16.89842 1234 ft 171 kts 297°
2026-05-07 15:59 52.41058 16.88089 945 ft 155 kts 301°
2026-05-07 16:00 52.41366 16.86468 629 ft 142 kts 289°
2026-05-07 16:00 52.41640 16.84986 424 ft 133 kts 291°
2026-05-07 16:00 52.41915 16.83584 298 ft 125 kts 290°
2026-05-07 16:00 52.42151 16.82388 290 ft 90 kts 287°
2026-05-07 16:01 52.42287 16.81648 287 ft 44 kts 282°
2026-05-07 16:01 52.42289 16.81338 287 ft 25 kts 262°
2026-05-07 16:01 52.42246 16.81149 287 ft 10 kts 194°
2026-05-07 16:01 52.42200 16.81238 291 ft 14 kts 107°
2026-05-07 16:02 52.42168 16.81406 287 ft 16 kts 107°
2026-05-07 16:02 52.42136 16.81574 287 ft 15 kts 107°
2026-05-07 16:02 52.42105 16.81735 287 ft 14 kts 107°
2026-05-07 16:02 52.42085 16.81838 290 ft 14 kts 107°
2026-05-07 16:03 52.42046 16.82040 287 ft 15 kts 107°
2026-05-07 16:03 52.42014 16.82208 291 ft 15 kts 108°
2026-05-07 16:03 52.41982 16.82371 292 ft 15 kts 108°
2026-05-07 16:03 52.41951 16.82528 287 ft 14 kts 107°
2026-05-07 16:04 52.41932 16.82631 287 ft 14 kts 107°
2026-05-07 16:04 52.41904 16.82775 287 ft 13 kts 107°
2026-05-07 16:04 52.41866 16.82903 287 ft 13 kts 155°
2026-05-07 16:04 52.41780 16.82880 287 ft 13 kts 195°
2026-05-07 16:05 52.41697 16.82845 287 ft 12 kts 179°
2026-05-07 16:05 52.41650 16.82947 287 ft 12 kts 102°
2026-05-07 16:05 52.41632 16.83081 287 ft 12 kts 102°
2026-05-07 16:05 52.41617 16.83197 287 ft 7 kts 108°
2026-05-07 16:06 52.41588 16.83211 287 ft 5 kts 196°
2026-05-07 16:06 52.41564 16.83201 287 ft 0 kts 193°
2026-05-07 16:06 52.41560 16.83199 287 ft 1 kts 193°
2026-05-07 16:06 52.41554 16.83197 287 ft 1 kts 192°
2026-05-07 16:07 52.41553 16.83197 287 ft 0 kts 192°